Theta_e
298 299 300 301 301 302 303 303 303 302 302 302 302 302 302 301 300 298 297 298 299 299 298 297 296 293 291 290 290 290 290 290 290 290 290 290 290 290 290 290 290 289 289 290 290 289 289 289 289 289 289 289 288 287 287 286 286 285 285 285 284 284
298 299 299 300 301 301 302 303 302 301 301 301 301 301 301 300 299 298 296 296 297 298 297 296 294 291 289 289 289 289 289 290 290 290 290 290 290 290 290 289 289 289 289 289 289 289 288 288 288 289 289 288 288 287 287 286 285 285 284 284 284 284
297 298 299 299 300 300 301 301 301 301 300 300 299 299 299 299 298 297 296 295 295 296 296 294 292 290 289 288 289 289 289 289 290 290 290 289 289 289 289 289 289 289 289 289 289 289 288 288 288 288 288 288 287 287 286 286 285 285 284 284 284 283
296 297 298 298 298 299 299 300 300 300 300 299 298 298 299 299 297 296 295 294 294 294 294 293 290 289 288 288 288 289 289 289 290 289 289 289 289 289 289 289 289 289 289 289 289 289 288 288 289 288 288 287 287 286 286 285 285 285 284 283 283 283
296 296 296 297 297 297 298 298 299 299 299 298 298 298 298 299 298 296 295 294 293 293 292 291 289 288 288 288 288 288 288 289 289 289 289 289 289 289 289 289 289 289 289 288 288 288 288 288 288 288 288 287 287 286 286 285 285 284 284 284 283 283
295 295 295 295 296 296 297 297 297 298 298 297 297 297 298 298 297 295 294 293 293 292 291 290 289 288 288 288 288 288 288 289 289 288 288 288 288 288 288 288 288 288 288 288 288 288 288 288 288 287 287 287 286 286 286 285 285 284 284 283 283 283
295 294 294 295 295 296 296 296 296 296 296 297 297 297 297 297 296 294 293 293 292 291 290 289 289 288 288 288 288 288 288 288 288 288 288 288 288 288 288 288 288 288 288 288 288 288 288 288 287 287 287 286 286 286 285 285 285 284 283 283 283 283
294 293 294 294 295 295 295 295 296 295 295 296 296 296 296 296 295 294 293 292 291 291 289 289 288 288 288 287 287 288 288 288 288 287 287 287 288 288 288 288 288 288 288 288 288 287 288 288 287 287 287 286 286 285 285 285 284 284 283 283 283 282
295 294 293 294 294 295 295 295 295 295 295 295 296 296 295 295 294 293 293 292 291 291 290 289 288 288 287 287 287 287 287 288 287 287 287 287 288 288 288 288 287 287 288 287 287 287 287 287 287 287 286 286 286 285 285 285 284 284 283 283 282 282
296 294 293 293 294 294 294 295 295 295 295 294 295 295 294 294 294 293 292 291 291 291 290 289 288 288 287 287 287 287 287 287 287 287 287 287 288 288 288 288 287 287 287 287 287 287 287 287 287 286 286 286 285 285 285 285 284 284 283 282 282 282
296 295 293 293 293 293 293 294 294 294 294 294 294 294 294 293 293 292 292 291 291 291 290 289 288 287 287 287 287 287 287 287 287 286 287 287 288 288 287 287 287 287 287 287 286 287 287 287 286 286 286 286 285 285 285 285 285 284 283 283 282 282
296 294 293 293 293 293 293 293 293 294 294 293 293 293 293 292 292 292 291 290 290 290 289 289 288 287 287 286 286 286 286 286 286 286 287 287 287 287 287 287 287 287 286 286 286 286 286 286 286 286 286 286 286 286 285 285 285 284 283 283 282 282
296 294 293 293 293 293 293 293 293 293 293 293 293 292 292 291 291 291 290 290 290 289 289 288 287 286 286 286 286 286 286 286 286 286 286 287 287 286 286 286 286 286 286 286 286 286 286 286 286 286 286 286 286 286 285 285 285 284 283 283 283 283
297 295 294 293 293 293 293 293 293 293 292 292 292 291 291 291 291 290 290 290 289 289 288 288 287 286 286 286 285 285 285 285 285 286 286 286 286 286 286 286 286 286 286 286 286 286 286 286 286 286 286 286 286 285 285 285 285 284 284 283 283 283
296 295 294 293 293 293 293 293 293 292 292 292 291 291 290 290 290 290 289 289 289 288 288 288 287 286 286 286 285 285 285 285 285 285 286 285 285 285 285 285 286 286 286 286 286 286 286 287 286 286 286 286 286 286 285 285 285 284 284 283 283 283
295 295 294 294 294 293 293 293 293 292 292 291 291 290 290 289 289 289 289 289 289 289 288 287 287 287 286 286 285 285 285 285 285 285 285 285 285 285 285 285 285 286 286 286 286 286 286 287 287 286 286 286 286 286 286 286 285 284 284 284 284 284
295 294 294 294 294 293 293 292 292 292 292 291 291 290 290 289 289 289 289 289 288 288 287 287 287 286 286 286 286 285 285 285 285 284 284 284 284 285 285 285 286 286 286 286 286 286 287 287 287 286 286 286 286 286 285 285 285 284 284 284 284 284
295 295 295 294 294 293 292 292 292 292 291 291 291 290 289 289 288 288 288 288 288 287 287 287 287 286 286 286 286 285 285 285 284 284 284 284 284 284 285 285 286 286 286 286 286 286 287 287 287 286 286 286 286 285 285 285 285 284 284 284 284 284
297 297 295 294 294 293 293 292 291 291 291 290 290 289 289 288 288 288 288 288 287 287 287 287 287 286 286 286 285 285 285 284 284 284 284 284 284 284 285 285 286 286 286 286 286 287 287 287 287 287 286 286 285 284 284 284 284 284 284 284 284 284
297 296 296 295 294 293 293 292 291 291 290 290 289 289 288 288 288 288 288 288 287 287 287 287 286 286 286 286 286 286 285 284 284 283 283 284 284 284 285 285 285 285 286 286 287 287 287 287 287 286 286 285 285 284 284 284 284 283 283 284 284 284
297 296 296 294 293 293 292 292 291 291 290 289 289 288 288 288 288 288 288 288 288 287 287 287 287 286 286 286 286 286 285 284 284 283 283 283 284 284 284 284 284 285 285 286 287 287 286 286 286 286 285 285 284 283 283 283 282 282 283 283 283 284
296 295 295 294 293 293 292 292 291 290 290 289 289 288 288 288 288 288 288 288 288 288 287 287 287 287 286 286 286 285 285 284 284 284 283 283 284 284 284 284 284 285 285 286 285 285 285 285 286 285 285 285 284 283 282 282 282 282 282 282 283 283
295 295 294 294 293 292 292 292 291 290 289 289 289 289 289 289 289 289 289 288 288 288 287 287 287 287 286 286 286 285 285 284 284 284 284 284 284 283 283 283 283 283 284 284 283 284 284 284 285 285 285 284 284 283 282 281 282 282 282 282 282 282
294 294 293 293 293 292 292 291 290 289 289 289 289 289 289 289 289 289 289 289 288 288 288 287 287 287 286 286 285 285 285 285 285 284 284 284 283 283 283 282 282 282 283 283 282 283 283 284 284 284 284 284 284 283 282 282 282 282 281 281 281 281
291 291 291 292 292 292 292 291 290 289 289 289 289 290 290 290 290 289 289 289 289 288 288 287 287 286 286 286 285 285 285 285 284 284 284 283 283 283 282 282 282 282 282 282 283 283 284 284 284 284 284 283 283 283 282 281 281 282 281 281 281 281
289 290 291 291 292 292 292 292 291 290 290 290 290 290 290 290 289 289 289 288 288 288 287 287 287 286 286 285 285 285 285 284 284 284 283 283 283 282 282 282 282 281 281 282 282 283 284 284 284 284 283 282 282 282 281 280 280 281 282 282 281 281
290 289 290 290 291 292 292 293 293 291 290 290 290 290 290 289 289 288 288 288 288 288 287 287 287 286 286 285 285 285 284 284 284 283 283 283 282 282 282 282 281 281 281 281 281 283 283 282 282 282 282 281 281 280 280 279 279 279 280 281 281 281
290 289 288 288 289 290 291 292 292 292 290 290 290 290 289 289 289 288 288 288 288 287 287 287 286 286 286 285 285 285 285 284 284 284 283 283 282 282 282 281 281 280 280 280 280 281 281 280 280 280 280 279 279 279 279 279 279 279 278 279 280 280
288 288 287 287 288 289 289 290 290 290 290 290 290 289 289 289 288 288 288 288 288 287 287 287 286 286 286 286 285 285 285 284 284 284 283 283 282 282 281 280 280 279 279 279 280 280 280 279 279 279 278 278 278 278 278 278 278 278 278 278 278 278
288 287 287 287 287 288 289 289 289 289 289 289 289 289 289 289 288 289 289 288 288 288 287 287 287 287 286 286 285 285 284 284 284 283 283 283 282 282 281 281 280 280 280 280 280 279 279 279 279 278 278 278 278 277 277 277 277 277 277 277 278 278
289 288 287 287 287 288 289 288 289 289 289 289 289 289 290 290 289 289 289 288 288 287 287 286 286 285 285 285 284 284 283 283 283 283 283 282 282 282 281 281 281 281 280 280 279 279 278 279 279 278 278 278 277 277 277 276 276 276 276 276 277 276
289 288 287 287 287 288 288 288 288 288 289 289 289 289 289 290 289 289 288 288 287 286 286 286 285 284 284 284 283 283 282 282 282 282 282 281 281 281 281 280 280 280 279 279 279 278 278 278 278 278 277 277 277 277 276 276 276 276 276 276 276 275
289 288 287 286 287 287 287 287 287 288 288 289 289 288 288 288 288 288 288 287 287 286 286 286 285 285 284 284 283 283 282 282 282 281 281 281 281 280 280 279 279 279 278 278 278 278 278 278 277 277 277 277 277 277 277 277 277 277 276 277 276 275
287 287 286 285 286 286 285 286 286 285 286 287 286 286 286 286 286 286 286 285 285 285 285 285 284 284 284 283 283 283 282 282 282 281 280 280 280 279 279 279 278 278 278 278 278 278 278 277 277 277 277 277 277 277 277 277 277 277 277 277 277 277
286 285 284 284 284 284 284 284 284 283 284 285 284 285 285 285 285 284 284 284 283 283 283 283 283 283 282 282 282 281 281 281 280 280 279 279 278 278 277 277 277 277 277 277 277 277 277 277 277 277 277 277 277 277 277 277 277 277 277 277 277 277
285 284 284 284 283 283 283 283 283 283 283 284 284 284 284 284 284 283 283 283 283 283 282 282 282 282 281 281 280 280 279 279 279 278 278 278 277 277 276 276 275 275 275 275 275 276 276 276 277 277 277 277 277 277 277 277 277 277 277 277 277 277
284 283 282 282 282 282 283 282 281 282 282 282 283 283 283 283 283 283 283 282 282 282 282 281 281 281 280 280 280 279 278 278 277 277 276 276 276 276 275 275 275 274 273 273 273 274 274 274 275 275 275 275 275 276 276 276 276 276 276 276 276 276
282 281 280 281 281 281 281 281 280 281 281 282 282 282 282 283 282 282 282 282 281 281 281 281 280 280 279 279 279 278 277 277 276 276 275 274 274 274 273 273 274 273 272 271 271 272 272 272 273 273 274 274 274 274 274 274 273 273 273 273 273 273
Wind_Speed
17 21 23 25 28 29 30 31 32 33 33 34 35 35 36 36 36 35 35 36 36 36 36 37 38 40 43 44 46 46 45 44 43 42 41 40 39 38 37 36 34 33 31 29 27 26 24 22 20 18 16 15 14 14 13 13 13 12 12 12 11 11
19 23 25 27 29 30 30 30 31 31 31 32 33 34 34 35 36 36 36 36 37 37 37 38 40 42 44 44 45 46 45 44 44 42 41 40 39 38 37 36 35 33 32 29 27 26 25 23 21 19 17 16 15 14 14 15 14 13 13 13 12 12
18 22 25 27 28 29 30 30 31 32 31 32 33 33 34 36 37 37 37 37 37 38 39 40 41 43 44 44 44 45 45 44 44 43 42 41 40 39 37 36 35 33 32 30 28 27 25 24 22 20 18 17 16 16 15 15 15 14 13 13 13 13
17 21 23 25 26 28 29 30 31 32 32 32 32 34 36 37 38 38 38 38 38 39 40 41 43 44 43 43 44 44 45 44 44 43 42 41 40 39 37 36 35 33 32 30 28 27 25 24 22 20 19 18 18 17 16 16 16 15 15 15 14 14
17 20 22 23 25 28 29 31 31 32 32 32 33 34 36 37 39 39 39 39 39 39 40 42 43 44 44 44 44 45 45 45 44 43 43 42 40 39 37 36 35 34 32 30 28 27 26 24 22 21 20 19 18 17 17 16 16 15 15 16 16 15
15 17 19 22 24 27 29 31 32 32 32 32 34 35 36 37 38 39 39 39 40 40 41 43 44 45 45 45 46 45 45 45 44 44 43 41 40 39 38 36 35 34 32 30 29 28 26 25 23 21 20 19 18 17 16 16 16 16 16 16 16 16
12 16 20 23 25 28 30 31 32 33 33 33 34 35 36 37 38 39 39 39 40 40 42 43 45 46 47 46 46 46 45 45 45 44 43 42 40 39 38 37 35 34 33 31 30 29 27 25 23 22 21 19 18 17 16 16 16 17 17 17 16 16
11 15 20 23 25 28 29 31 32 33 33 34 35 35 36 37 38 39 39 40 40 41 42 44 45 47 47 46 46 46 45 45 45 44 43 42 41 40 39 38 36 35 33 31 30 29 27 25 23 22 21 20 19 18 17 17 17 17 17 17 17 17
11 15 20 23 25 27 29 31 32 33 34 35 36 35 36 37 38 39 39 40 40 41 43 45 46 46 46 46 46 45 45 45 45 44 43 42 41 40 40 39 37 35 33 32 31 29 27 25 24 23 22 21 20 19 19 19 18 18 18 18 18 18
11 13 19 23 24 26 28 30 31 33 34 35 36 36 36 37 38 39 39 39 40 42 44 44 44 45 45 45 45 45 45 45 45 44 44 43 42 41 41 39 37 35 33 32 31 29 27 26 25 24 23 22 21 20 20 19 19 19 20 20 19 19
11 12 18 22 24 26 28 29 30 32 33 34 35 36 37 37 37 38 39 39 40 41 41 40 41 42 43 44 44 45 45 45 45 44 44 43 43 42 41 39 37 36 35 34 32 30 28 27 26 25 24 23 22 21 21 20 19 20 21 21 20 19
11 13 17 21 24 27 28 30 32 33 34 34 35 36 36 36 36 37 37 38 38 37 36 37 39 40 41 43 44 44 44 44 44 44 44 44 43 42 41 39 38 37 36 35 33 31 30 29 27 26 25 23 21 21 21 20 20 21 22 22 21 20
10 11 16 22 27 29 29 30 31 32 33 34 35 35 35 35 35 36 36 36 35 34 34 36 36 37 38 40 42 42 42 43 43 43 44 43 42 41 40 39 39 38 37 35 34 32 31 30 28 26 25 24 22 22 22 21 21 22 23 23 22 21
12 13 18 24 27 28 29 29 28 29 31 32 32 32 33 34 35 35 34 34 33 32 33 34 34 35 36 37 38 39 40 40 41 42 43 43 42 41 40 40 40 39 37 36 34 33 32 30 29 27 26 25 24 24 23 22 22 23 24 24 23 21
14 17 22 24 27 30 30 29 29 30 30 29 29 30 32 33 34 34 33 33 33 33 33 34 34 34 35 35 35 36 37 38 40 42 43 42 41 40 40 40 39 39 38 37 36 34 33 31 29 28 28 27 26 26 26 25 25 25 25 25 24 22
14 19 23 24 26 28 28 28 29 28 28 28 29 31 32 33 33 33 33 33 34 34 34 34 34 34 34 34 34 35 36 38 40 41 41 41 40 39 40 40 39 39 39 38 36 35 34 32 31 30 30 29 29 29 29 27 27 27 27 26 25 24
14 17 20 22 24 25 26 28 28 27 27 29 30 32 33 33 33 32 32 32 33 33 33 33 34 34 34 34 34 35 36 37 39 39 40 40 40 40 40 40 40 40 39 38 37 36 35 34 33 32 32 32 32 32 31 30 29 29 29 28 27 26
16 18 20 22 24 25 27 29 29 28 28 29 31 32 32 32 31 31 31 31 31 31 31 32 33 33 34 34 34 35 35 36 38 38 38 38 38 38 39 39 40 41 40 39 38 38 37 36 35 35 34 35 34 33 32 32 31 31 32 31 30 29
19 20 21 22 24 26 27 28 28 28 27 27 28 29 29 29 30 31 31 30 30 30 31 32 33 33 33 33 34 34 35 36 37 37 36 37 37 38 39 40 41 41 41 40 40 40 39 39 38 37 37 37 36 34 33 34 34 34 34 34 33 31
17 18 20 22 23 26 27 28 28 27 26 26 27 27 28 29 30 31 30 29 29 30 31 31 32 32 33 33 34 35 36 36 35 36 36 37 38 39 40 41 40 40 40 41 41 42 42 42 41 40 39 38 37 35 35 36 36 36 36 36 35 34
16 18 20 21 22 24 26 27 28 28 26 26 26 26 27 28 29 29 29 28 28 29 30 30 31 32 32 33 35 36 36 35 35 35 35 36 37 38 38 38 38 39 41 42 43 44 45 45 43 41 39 38 37 36 36 36 36 37 39 39 38 37
17 18 20 21 22 24 25 27 28 27 25 24 25 26 27 27 27 27 27 28 28 28 29 30 31 32 32 34 35 35 35 34 33 33 33 34 35 35 36 36 38 40 42 43 44 45 45 45 44 42 40 39 38 37 36 37 38 40 41 41 40 40
15 17 17 18 21 23 25 27 26 24 23 23 24 25 25 25 25 25 26 26 27 28 28 29 30 31 32 33 33 32 32 33 33 33 34 35 35 35 36 36 37 39 41 42 42 43 43 44 44 43 41 40 39 38 37 38 42 43 42 41 41 41
14 15 14 16 20 22 24 25 24 21 21 22 22 22 22 21 22 22 23 24 26 27 28 28 30 30 31 32 31 31 32 32 33 34 34 34 34 35 35 36 35 36 38 39 40 41 43 43 43 43 43 41 41 39 39 40 43 44 41 40 41 43
15 15 16 16 19 20 22 23 21 20 20 20 19 19 18 18 19 20 21 23 24 26 27 28 29 29 30 31 31 31 32 32 32 32 32 32 32 32 33 34 35 35 37 38 39 41 43 44 44 44 43 42 42 41 41 40 39 38 37 39 42 44
17 17 16 16 17 18 20 20 19 19 19 17 16 16 16 16 17 17 19 21 23 24 25 26 27 28 28 29 29 30 30 30 30 30 30 30 31 31 32 33 34 34 36 38 40 42 44 44 44 44 43 42 42 42 41 40 37 34 32 35 40 43
18 18 16 14 15 16 17 16 16 17 17 14 13 13 14 14 15 16 18 19 21 22 23 24 25 25 26 27 28 29 29 29 29 29 29 30 30 31 32 33 32 33 35 36 38 41 42 40 39 40 39 39 39 39 39 39 39 37 34 33 37 39
17 17 15 12 11 13 13 12 11 12 13 12 11 11 12 13 14 15 16 17 18 20 21 21 22 23 24 25 26 27 27 28 28 29 29 29 30 31 32 32 31 31 32 33 36 39 37 34 32 33 33 32 32 33 34 35 36 38 37 37 40 40
17 16 16 14 11 11 11 10 7 8 9 9 8 9 10 11 13 14 14 15 16 17 17 18 19 20 21 23 24 25 26 27 27 28 28 29 30 30 31 30 29 29 29 31 34 35 33 31 30 30 29 29 29 29 29 29 30 31 32 35 38 40
18 18 18 16 14 13 13 12 10 10 8 7 7 8 9 10 10 10 11 11 12 13 14 15 16 18 19 21 22 23 24 25 26 27 28 28 28 29 29 28 28 29 29 31 32 30 29 30 30 28 26 27 26 26 25 25 25 26 27 29 31 32
19 19 19 18 16 16 16 15 14 12 11 10 8 7 7 7 8 7 7 8 9 10 12 13 14 15 17 18 19 20 21 21 22 24 25 25 25 25 25 26 27 28 27 27 28 26 27 30 29 26 24 24 23 23 24 23 23 23 22 23 24 26
18 19 19 17 16 16 15 14 13 12 11 11 10 8 7 6 6 6 6 6 7 8 9 10 11 12 13 13 14 15 16 17 17 19 21 21 21 22 22 22 23 24 23 24 25 24 25 27 26 23 21 21 20 19 20 20 20 19 19 18 18 21
17 18 19 17 15 15 14 13 11 10 9 9 9 8 8 7 6 5 5 4 4 4 5 5 6 7 8 9 10 11 12 13 14 15 16 17 18 18 18 19 20 20 19 20 21 20 20 21 21 18 17 16 15 15 16 17 18 18 18 18 17 20
17 18 18 17 16 15 13 12 11 9 8 8 7 7 8 8 7 6 5 4 3 2 2 2 3 3 4 5 6 7 8 9 10 10 11 12 13 14 14 14 14 14 13 14 15 16 17 17 17 16 15 15 15 16 16 16 17 17 17 17 18 21
18 19 19 18 16 15 14 12 11 9 8 7 7 6 6 6 6 6 6 5 4 3 3 2 2 1 2 2 3 4 5 6 6 7 7 8 9 9 9 10 11 11 11 11 11 11 12 13 14 14 13 13 14 15 15 15 15 15 15 15 17 21
19 19 19 18 16 14 13 12 11 10 8 8 7 6 6 6 6 6 6 5 4 3 3 2 1 1 1 1 2 3 3 4 5 5 6 7 7 7 7 7 8 9 11 10 9 8 8 8 9 9 9 9 10 11 12 13 13 13 13 15 17 19
19 19 17 16 14 13 12 12 11 10 9 8 7 6 5 6 5 5 5 4 3 2 2 1 1 1 1 1 2 3 3 4 4 5 5 6 6 6 6 6 6 7 7 8 9 9 9 9 10 9 9 10 11 12 12 11 10 9 9 10 12 13
20 19 16 15 13 12 12 12 11 10 9 8 6 5 5 5 5 4 4 4 3 2 2 1 1 1 1 2 2 2 3 3 4 4 4 5 5 5 6 6 5 6 6 6 8 8 9 10 11 11 11 11 12 14 13 11 9 8 8 8 9 11
Wind_Direction
192 193 195 198 197 195 194 195 196 196 198 197 196 197 198 197 198 197 197 198 197 197 196 196 196 192 187 184 182 181 181 181 179 178 177 176 175 173 172 172 172 171 170 169 166 165 165 164 163 163 163 164 167 168 170 174 175 177 181 183 189 198
195 194 194 197 197 197 195 194 196 197 198 198 197 198 198 198 199 198 198 198 197 197 197 197 196 192 188 186 184 184 184 183 182 181 180 178 178 177 175 175 175 174 173 172 171 169 169 169 168 169 170 171 175 177 177 180 180 182 187 190 195 201
195 195 197 197 197 198 196 194 196 197 198 198 197 196 196 197 199 199 199 198 197 197 196 196 194 191 189 188 187 187 186 186 185 184 183 181 181 180 179 179 178 177 176 175 174 173 173 173 173 174 177 177 180 182 183 184 184 186 192 197 202 205
192 193 195 196 196 197 198 197 197 197 199 198 197 196 197 198 198 198 199 198 198 198 197 196 194 191 191 190 189 190 189 188 187 187 186 184 183 183 182 182 181 180 180 178 178 177 177 178 178 179 181 184 185 186 186 189 189 192 198 202 208 211
190 192 193 195 196 197 198 199 199 199 200 198 196 197 198 199 200 199 199 198 198 198 197 196 194 193 193 192 192 192 191 190 190 189 189 187 186 186 186 185 184 183 183 182 180 180 181 182 183 183 186 189 191 190 190 193 194 198 204 208 212 215
188 190 192 195 198 199 199 200 201 201 200 198 198 199 199 200 200 199 198 198 198 198 197 196 195 194 195 195 195 195 194 193 192 191 191 190 189 188 188 189 188 186 186 184 183 184 185 185 185 186 189 192 195 196 197 198 198 202 209 215 217 220
190 193 195 196 198 200 201 202 202 202 201 200 200 200 201 201 200 199 198 198 198 198 198 197 196 196 197 197 197 197 195 195 194 193 193 192 192 191 191 191 191 190 189 187 187 187 188 188 188 189 192 194 196 200 203 204 204 206 212 217 221 224
197 198 199 200 200 200 201 202 203 202 202 202 202 201 201 201 201 199 198 198 198 198 198 198 198 198 198 199 199 198 197 197 196 195 194 195 194 194 194 194 194 193 191 190 191 191 190 190 191 193 194 196 197 201 206 208 209 211 216 220 223 226
203 202 202 203 202 203 202 202 203 202 203 203 203 203 201 201 201 200 200 199 199 199 200 200 200 200 199 200 200 200 199 199 198 197 196 197 197 197 197 197 196 195 194 194 194 194 193 192 192 195 198 199 201 203 207 209 210 213 218 222 225 227
206 202 204 204 203 204 205 204 204 203 204 204 204 203 203 201 200 200 200 201 201 202 203 202 201 201 201 201 201 201 201 200 200 199 199 199 200 201 200 199 198 197 196 197 197 196 195 194 195 197 199 202 203 206 210 212 212 215 219 222 225 226
205 200 203 204 202 204 204 204 205 204 204 205 204 204 204 202 200 200 201 202 203 205 204 203 202 202 202 202 202 202 202 201 201 200 200 201 202 203 203 202 200 199 199 199 199 198 197 197 198 199 201 203 205 208 212 214 215 218 220 223 224 226
206 199 201 203 204 204 202 202 204 203 203 204 203 204 204 201 200 200 201 203 205 205 204 204 204 203 202 202 202 202 202 202 202 201 202 203 204 205 204 203 202 202 202 201 200 199 199 199 200 202 204 206 208 212 214 215 217 219 222 224 225 227
206 198 202 206 206 205 204 203 203 201 202 203 202 202 201 200 200 201 202 204 205 205 205 205 205 204 203 203 203 203 202 202 202 202 204 205 206 206 206 205 204 204 204 204 202 201 202 202 203 204 206 209 212 216 218 218 220 221 223 225 226 228
204 202 207 208 206 205 205 204 200 200 202 202 200 200 199 199 200 201 202 204 204 205 205 205 205 204 205 205 204 203 203 203 203 203 205 207 207 207 206 206 207 207 207 206 205 205 205 205 205 206 208 212 214 218 220 221 222 224 225 227 228 230
208 208 209 206 204 206 205 201 198 199 201 199 198 198 197 198 200 200 202 202 203 204 205 205 205 205 206 206 205 205 204 204 205 206 207 208 208 208 208 208 208 209 209 209 208 209 209 209 208 209 211 215 217 220 222 223 224 226 228 230 231 232
212 212 211 207 206 205 202 199 199 199 198 196 196 197 197 198 200 200 201 202 202 204 204 204 205 205 207 207 207 207 207 207 208 208 209 210 209 209 209 209 210 211 212 212 212 212 213 213 213 213 215 218 220 223 225 226 226 229 231 232 234 235
207 207 206 205 203 199 195 196 196 194 193 194 195 196 197 199 199 200 202 202 203 203 203 203 204 205 207 208 209 210 210 210 210 210 211 211 211 211 212 211 212 214 214 215 215 216 217 218 217 217 219 221 223 225 228 229 229 231 234 235 236 238
205 202 201 199 195 192 192 193 192 190 191 193 194 195 196 197 198 200 202 203 203 203 203 204 204 205 206 208 209 210 212 213 213 212 212 212 213 214 214 214 215 217 217 218 218 219 221 223 221 221 222 224 225 227 230 232 233 234 237 239 239 241
208 203 196 190 188 190 191 189 187 186 186 189 191 193 193 194 198 201 202 203 204 204 206 206 205 205 206 207 209 211 214 215 215 214 214 213 213 214 216 217 218 219 220 220 221 223 226 227 226 224 225 225 226 228 231 235 237 237 239 242 243 244
198 192 187 184 186 190 188 185 183 181 182 186 189 190 191 195 199 201 202 203 204 206 208 208 207 207 207 209 211 214 216 216 216 216 216 216 216 217 218 220 221 222 223 224 225 228 230 231 230 228 226 227 229 230 233 237 240 242 243 244 245 247
177 176 178 179 181 185 185 182 180 179 181 184 186 188 192 197 200 201 201 204 206 209 210 211 211 211 211 213 215 216 217 217 217 218 219 219 220 221 222 222 223 225 227 228 230 231 232 233 233 231 229 230 231 232 234 238 241 243 247 248 249 250
162 163 169 174 177 181 182 180 178 178 180 182 184 189 195 199 201 202 203 206 208 211 213 214 215 215 216 217 218 218 219 219 219 220 221 223 224 225 226 227 228 230 231 231 232 233 234 235 236 235 233 233 233 234 235 238 241 244 248 250 251 253
152 155 162 171 174 175 177 176 174 175 177 180 186 193 198 201 203 204 205 208 210 213 216 217 219 220 220 220 220 220 220 221 222 223 225 226 226 227 228 229 231 233 234 234 235 237 238 238 239 239 238 236 236 236 236 238 243 247 248 250 253 255
130 136 146 161 167 170 173 172 170 171 176 182 191 198 201 202 204 205 207 209 213 216 218 220 221 222 222 221 221 221 222 223 225 226 227 227 228 228 230 232 234 237 239 240 241 242 243 243 243 244 243 241 240 240 239 240 245 249 249 250 253 256
115 123 135 150 161 166 170 170 166 168 177 186 196 201 202 204 206 208 210 212 215 217 219 221 222 222 222 222 222 222 222 223 224 225 227 228 229 231 233 236 238 240 243 245 246 247 248 248 248 248 248 247 246 245 244 243 245 250 252 253 255 258
114 120 131 146 156 162 170 171 168 171 180 190 197 199 201 204 205 208 211 213 215 218 220 222 223 223 223 223 222 221 222 223 224 225 227 229 230 232 235 238 239 240 243 247 249 251 252 252 252 253 252 252 251 250 249 247 246 248 253 258 262 264
117 121 127 141 154 160 168 173 172 174 179 187 194 197 199 201 202 205 209 213 216 219 221 222 223 224 224 224 224 223 223 224 225 226 228 229 230 232 235 237 239 240 243 247 250 254 256 256 257 258 258 258 258 257 257 255 252 250 250 255 262 267
115 116 115 122 140 153 161 169 172 171 173 180 187 193 195 196 198 202 206 211 214 216 218 219 220 222 224 225 226 228 228 229 229 229 229 230 231 233 235 238 239 241 244 247 252 256 259 260 262 264 266 266 266 265 264 264 262 259 256 255 257 261
116 115 111 112 124 138 144 148 145 145 156 166 170 176 182 187 192 196 200 205 209 212 215 218 220 221 224 226 228 230 231 232 233 232 231 231 232 233 235 237 239 241 244 249 254 258 262 265 266 268 270 272 273 274 273 271 270 268 265 263 262 263
121 119 115 113 119 126 126 121 113 114 125 136 146 160 172 178 185 192 198 203 209 213 217 222 225 226 228 229 230 230 231 232 233 234 235 237 238 238 239 241 243 245 248 252 257 262 267 270 271 272 276 279 281 282 282 278 276 274 271 269 271 272
120 119 114 113 119 123 118 113 109 109 112 116 126 142 157 167 177 188 196 204 212 217 220 224 227 228 230 232 231 231 232 235 237 239 242 245 247 249 250 252 254 256 258 260 263 266 270 274 278 282 287 290 290 290 289 286 284 282 279 277 277 276
116 117 114 114 121 124 121 118 117 116 115 117 120 124 130 146 166 178 188 200 210 217 221 225 228 230 234 237 237 236 236 240 244 247 249 250 252 255 257 259 262 265 267 269 270 271 272 278 285 291 293 293 291 289 287 286 285 284 282 281 280 274
114 117 118 121 127 128 127 127 126 127 130 131 132 132 131 135 148 157 166 183 199 212 223 230 235 239 242 246 249 249 247 246 249 253 256 257 258 259 261 263 266 269 270 272 276 279 281 285 291 293 290 285 282 279 277 276 276 274 273 273 271 265
116 119 123 128 130 129 129 127 124 127 134 138 142 148 144 141 143 140 137 145 162 172 190 210 226 242 250 252 257 259 258 256 255 256 260 264 265 265 265 265 267 269 269 270 275 280 284 289 294 293 288 282 277 276 275 275 274 271 269 269 265 260
119 122 126 129 130 129 128 124 118 117 121 125 131 138 140 138 136 131 127 129 132 130 131 143 163 198 227 244 255 262 267 270 270 266 263 263 267 271 269 264 261 261 261 263 269 276 281 285 288 288 286 282 278 274 272 272 273 272 269 267 264 261
124 125 127 129 129 128 125 119 114 113 115 116 119 122 124 122 119 118 118 117 117 119 122 122 131 175 224 246 261 271 272 272 274 273 267 262 261 262 261 257 256 257 257 257 260 264 267 269 270 272 274 275 278 279 275 271 272 272 270 267 265 265
126 125 127 129 129 127 121 114 111 112 112 112 114 117 117 115 113 111 112 111 112 119 122 125 156 210 248 252 254 262 264 262 264 267 270 271 268 263 261 259 254 254 257 257 254 252 254 257 259 265 272 275 276 278 280 279 277 277 274 269 269 274
126 125 129 129 126 122 117 112 110 113 114 113 115 118 118 118 120 121 121 123 124 128 132 143 164 183 217 236 241 247 251 256 263 268 272 278 282 282 283 280 268 256 254 258 259 258 259 261 262 265 271 278 280 282 286 293 298 299 300 296 292 293